Hourly Data Report for October 09, 2013

All times are specified in Local Standard Time (LST). Add 1 hour to adjust for Daylight Saving Time where and when it is observed.

HALL BEACH A
NUNAVUT

68°46'33.000" N
81°14'33.000" W
9.10 m
2402354
71293
YUX

Download Data

Hourly Data (October 2013)
Hourly Data Report for October 9, 2013
Temp Definition
°C
Dew Point Temp Definition
°C
Rel Hum Definition
%
Wind Dir Definition
10's deg

Wind Spd Definition
km/h
Visibility Definition
km
Stn Press Definition
kPa
Hmdx Definition


Wind Chill Definition


Weather Definition


TIME
00:00 Legend Double Dagger -3.5 -7.5 74 3 45 16.1 100.87   -13 LegendNANA
01:00 Legend Double Dagger -3.3 -7.8 71 3 41 16.1 100.90   -12 LegendNANA
02:00 Legend Double Dagger -3.3 -8.2 69 3 46 16.1 100.92   -12 LegendNANA
03:00 Legend Double Dagger -3.2 -8.3 68 3 46 16.1 100.98   -12 LegendNANA
04:00 Legend Double Dagger -3.6 -7.6 74 2 37 16.1 101.02   -12 LegendNANA
05:00 Legend Double Dagger -4.0 -7.5 77 1 39 16.1 101.08   -13 LegendNANA
06:00 Legend Double Dagger -4.3 -7.4 79 1 33 16.1 101.13   -12 LegendNANA
07:00 Legend Double Dagger -6.4 -8.2 87 34 26 16.1 101.17   -14 LegendNANA
08:00 Legend Double Dagger -6.6 -8.6 86 33 32 16.1 101.20   -15 LegendNANA
09:00 Legend Double Dagger -6.4 -8.5 85 34 35 16.1 101.20   -15 LegendNANA
10:00 Legend Double Dagger -5.8 -8.4 82 35 37 16.1 101.20   -15 LegendNANA
11:00 Legend Double Dagger -5.2 -8.3 79 35 37 16.1 101.23   -14 LegendNANA
12:00 Legend Double Dagger -4.9 -8.1 78 35 35 16.1 101.24   -13 LegendNANA
13:00 Legend Double Dagger -4.6 -8.4 75 36 30 16.1 101.27   -12 LegendNANA
14:00 Legend Double Dagger -4.4 -8.6 73 35 28 16.1 101.31   -12 LegendNANA
15:00 Legend Double Dagger -4.9 -8.0 79 33 26 16.1 101.36   -12 LegendNANA
16:00 Legend Double Dagger -5.8 -8.6 81 34 26 16.1 101.39   -14 LegendNANA
17:00 Legend Double Dagger -6.9 -9.2 84 33 21 16.1 101.41   -14 LegendNANA
18:00 Legend Double Dagger -8.0 -10.0 86 30 15 16.1 101.43   -14 LegendNANA
19:00 Legend Double Dagger -9.1 -11.0 86 32 18 16.1 101.42   -16 LegendNANA
20:00 Legend Double Dagger -9.5 -12.0 82 31 22 16.1 101.46   -18 LegendNANA
21:00 Legend Double Dagger -9.2 -11.7 82 31 24 16.1 101.47   -18 LegendNANA
22:00 Legend Double Dagger -9.0 -10.7 88 31 22 16.1 101.50   -17 LegendNANA
23:00 Legend Double Dagger -9.4 -10.8 90 31 22 16.1 101.51   -17 LegendNANA

Notes on Data Quality.

Legend

  • E = Estimated
  • M = Missing
  • NA = Not Available
  • ‡ = Partner data that is not subject to review by the National Climate Archives
Date modified: